MVC2020 SUMU-SCFA

Flight info

Callsign MVC2020
Flight time 2h 43m
Altitude 36000
Route NIMBO DCT GUA DCT PAR UW8 ERE UT680 VULEK DCT CAT UL650 ILSOT UQ802 DOVRI CEMOR3
Aircraft B738/M-SDE2E3FGHIRWXY/LB1

Departure

Time 2026-04-28 21:09
Airport Carrasco General Cesáreo L. Berisso International Airport (SUMU)

Arrival

Time 2026-04-28 23:53
Airport Andrés Sabella Gálvez International Airport (SCFA)
Time Latitude Longitude Altitude Speed Heading
2026-04-28 20:49 -34.83868 -56.02461 81 ft 0 kts
2026-04-28 20:55 -34.83885 -56.02461 86 ft 4 kts 355°
2026-04-28 20:55 -34.83912 -56.02456 86 ft 4 kts 343°
2026-04-28 20:56 -34.83936 -56.02443 85 ft 4 kts 316°
2026-04-28 20:56 -34.83946 -56.02422 85 ft 1 kts 270°
2026-04-28 20:56 -34.83946 -56.02417 86 ft 0 kts 270°
2026-04-28 21:04 -34.83947 -56.02455 81 ft 10 kts 269°
2026-04-28 21:05 -34.83949 -56.02583 81 ft 18 kts 259°
2026-04-28 21:05 -34.83981 -56.02657 81 ft 9 kts 265°
2026-04-28 21:05 -34.83980 -56.02671 81 ft 2 kts 277°
2026-04-28 21:05 -34.84008 -56.02718 82 ft 8 kts 222°
2026-04-28 21:06 -34.84039 -56.02774 85 ft 8 kts 262°
2026-04-28 21:06 -34.84026 -56.02837 81 ft 8 kts 288°
2026-04-28 21:06 -34.84017 -56.02900 81 ft 8 kts 279°
2026-04-28 21:06 -34.84012 -56.02963 81 ft 7 kts 270°
2026-04-28 21:07 -34.84015 -56.03023 81 ft 7 kts 253°
2026-04-28 21:07 -34.84051 -56.03056 83 ft 7 kts 191°
2026-04-28 21:07 -34.84099 -56.03051 82 ft 7 kts 168°
2026-04-28 21:07 -34.84144 -56.03039 84 ft 7 kts 184°
2026-04-28 21:08 -34.84164 -56.03054 83 ft 2 kts 243°
2026-04-28 21:08 -34.84158 -56.03078 84 ft 4 kts 302°
2026-04-28 21:08 -34.84120 -56.03086 84 ft 6 kts 15°
2026-04-28 21:08 -34.84101 -56.03084 82 ft 7 kts
2026-04-28 21:09 -34.83811 -56.03081 84 ft 78 kts
2026-04-28 21:09 -34.83032 -56.03095 84 ft 143 kts 358°
2026-04-28 21:09 -34.81925 -56.03145 409 ft 168 kts 351°
2026-04-28 21:09 -34.80711 -56.03540 855 ft 196 kts 337°
2026-04-28 21:10 -34.79486 -56.04373 1353 ft 209 kts 323°
2026-04-28 21:10 -34.78635 -56.05660 1825 ft 185 kts 296°
2026-04-28 21:10 -34.78091 -56.07069 2148 ft 188 kts 298°
2026-04-28 21:10 -34.77463 -56.08493 2572 ft 193 kts 300°
2026-04-28 21:11 -34.76775 -56.09915 3015 ft 197 kts 301°
2026-04-28 21:11 -34.76032 -56.11341 3440 ft 202 kts 301°
2026-04-28 21:11 -34.75238 -56.12780 3871 ft 207 kts 302°
2026-04-28 21:11 -34.74393 -56.14243 4310 ft 216 kts 302°
2026-04-28 21:12 -34.73491 -56.15753 4780 ft 225 kts 302°
2026-04-28 21:12 -34.72536 -56.17305 5274 ft 232 kts 303°
2026-04-28 21:12 -34.71544 -56.18881 5813 ft 238 kts 303°
2026-04-28 21:12 -34.70528 -56.20468 6369 ft 243 kts 304°
2026-04-28 21:13 -34.69470 -56.22100 6926 ft 247 kts 304°
2026-04-28 21:13 -34.68393 -56.23747 7500 ft 250 kts 304°
2026-04-28 21:13 -34.67673 -56.24840 7892 ft 251 kts 304°
2026-04-28 21:13 -34.66877 -56.26045 8334 ft 253 kts 304°
2026-04-28 21:14 -34.65770 -56.27715 8935 ft 254 kts 303°
2026-04-28 21:14 -34.64670 -56.29370 9550 ft 256 kts 303°
2026-04-28 21:14 -34.63543 -56.31062 10139 ft 257 kts 303°
2026-04-28 21:14 -34.62413 -56.32755 10704 ft 258 kts 303°
2026-04-28 21:15 -34.61284 -56.34446 11281 ft 258 kts 303°
2026-04-28 21:15 -34.60153 -56.36137 11858 ft 258 kts 303°
2026-04-28 21:15 -34.59017 -56.37835 12437 ft 258 kts 303°
2026-04-28 21:15 -34.57897 -56.39508 13010 ft 258 kts 303°
2026-04-28 21:16 -34.56764 -56.41199 13603 ft 258 kts 302°
2026-04-28 21:16 -34.55632 -56.42890 14129 ft 258 kts 302°
2026-04-28 21:16 -34.54475 -56.44622 14317 ft 273 kts 303°
2026-04-28 21:16 -34.53243 -56.46465 14452 ft 289 kts 303°
2026-04-28 21:17 -34.51935 -56.48419 14577 ft 306 kts 303°
2026-04-28 21:17 -34.50548 -56.50473 14702 ft 323 kts 304°
2026-04-28 21:17 -34.49078 -56.52620 14814 ft 339 kts 304°
2026-04-28 21:17 -34.47528 -56.54866 14919 ft 354 kts 305°
2026-04-28 21:18 -34.45912 -56.57202 15111 ft 366 kts 305°
2026-04-28 21:18 -34.44257 -56.59590 15507 ft 371 kts 305°
2026-04-28 21:18 -34.42594 -56.61987 15985 ft 373 kts 305°
2026-04-28 21:18 -34.40937 -56.64377 16413 ft 376 kts 305°
2026-04-28 21:19 -34.39244 -56.66820 16812 ft 380 kts 305°
2026-04-28 21:19 -34.37537 -56.69285 17230 ft 383 kts 305°
2026-04-28 21:19 -34.35815 -56.71770 17644 ft 387 kts 305°
2026-04-28 21:19 -34.34075 -56.74282 18057 ft 390 kts 305°
2026-04-28 21:20 -34.32328 -56.76803 18433 ft 393 kts 305°
2026-04-28 21:20 -34.30560 -56.79351 18753 ft 397 kts 305°
2026-04-28 21:20 -34.28774 -56.81926 19065 ft 401 kts 305°
2026-04-28 21:20 -34.26970 -56.84523 19384 ft 404 kts 305°
2026-04-28 21:21 -34.25155 -56.87135 19710 ft 408 kts 305°
2026-04-28 21:21 -34.23320 -56.89774 20033 ft 411 kts 305°
2026-04-28 21:21 -34.21489 -56.92403 20350 ft 415 kts 305°
2026-04-28 21:21 -34.19626 -56.95077 20663 ft 418 kts 305°
2026-04-28 21:22 -34.17743 -56.97779 20976 ft 421 kts 305°
2026-04-28 21:22 -34.15849 -57.00493 21280 ft 424 kts 305°
2026-04-28 21:22 -34.13936 -57.03233 21576 ft 428 kts 305°
2026-04-28 21:22 -34.12664 -57.05054 21768 ft 430 kts 305°
2026-04-28 21:23 -34.10069 -57.08766 22145 ft 434 kts 305°
2026-04-28 21:23 -34.08114 -57.11558 22452 ft 437 kts 305°
2026-04-28 21:23 -34.06147 -57.14366 22726 ft 440 kts 305°
2026-04-28 21:23 -34.04166 -57.17193 22986 ft 443 kts 306°
2026-04-28 21:24 -34.02193 -57.20005 23238 ft 446 kts 306°
2026-04-28 21:24 -34.00184 -57.22867 23498 ft 449 kts 306°
2026-04-28 21:24 -33.98154 -57.25756 23730 ft 452 kts 306°
2026-04-28 21:24 -33.96117 -57.28653 23973 ft 453 kts 306°
2026-04-28 21:25 -33.94076 -57.31551 24222 ft 455 kts 306°
2026-04-28 21:25 -33.92020 -57.34470 24456 ft 457 kts 306°
2026-04-28 21:25 -33.89959 -57.37393 24681 ft 459 kts 306°
2026-04-28 21:25 -33.87884 -57.40336 24903 ft 461 kts 306°
2026-04-28 21:26 -33.85803 -57.43283 25126 ft 463 kts 306°
2026-04-28 21:26 -33.83708 -57.46247 25353 ft 465 kts 306°
2026-04-28 21:26 -33.81633 -57.49181 25557 ft 467 kts 306°
2026-04-28 21:26 -33.79524 -57.52160 25761 ft 469 kts 306°
2026-04-28 21:27 -33.77400 -57.55158 25963 ft 471 kts 306°
2026-04-28 21:27 -33.75270 -57.58163 26187 ft 472 kts 306°
2026-04-28 21:27 -33.73135 -57.61171 26407 ft 474 kts 306°
2026-04-28 21:27 -33.70993 -57.64187 26619 ft 475 kts 306°
2026-04-28 21:28 -33.68843 -57.67211 26819 ft 476 kts 306°
2026-04-28 21:28 -33.66684 -57.70248 26995 ft 478 kts 306°
2026-04-28 21:28 -33.64519 -57.73288 27179 ft 480 kts 306°
2026-04-28 21:28 -33.62344 -57.76340 27349 ft 482 kts 306°
2026-04-28 21:29 -33.60184 -57.79370 27524 ft 484 kts 306°
2026-04-28 21:29 -33.57987 -57.82448 27691 ft 485 kts 307°
2026-04-28 21:29 -33.55790 -57.85522 27881 ft 486 kts 307°
2026-04-28 21:29 -33.53580 -57.88614 28060 ft 488 kts 307°
2026-04-28 21:30 -33.51370 -57.91701 28239 ft 489 kts 307°
2026-04-28 21:30 -33.49151 -57.94799 28397 ft 491 kts 307°
2026-04-28 21:30 -33.46921 -57.97910 28561 ft 492 kts 307°
2026-04-28 21:30 -33.44684 -58.01028 28761 ft 493 kts 307°
2026-04-28 21:31 -33.42477 -58.04101 29006 ft 492 kts 307°
2026-04-28 21:31 -33.40242 -58.07209 29265 ft 491 kts 307°
2026-04-28 21:31 -33.38013 -58.10307 29480 ft 491 kts 307°
2026-04-28 21:31 -33.35778 -58.13410 29705 ft 491 kts 307°
2026-04-28 21:32 -33.33551 -58.16502 29946 ft 491 kts 307°
2026-04-28 21:32 -33.31323 -58.19591 30169 ft 490 kts 307°
2026-04-28 21:32 -33.29093 -58.22680 30372 ft 490 kts 307°
2026-04-28 21:32 -33.26863 -58.25767 30623 ft 488 kts 307°
2026-04-28 21:33 -33.24650 -58.28827 30878 ft 486 kts 307°
2026-04-28 21:33 -33.22445 -58.31874 31112 ft 485 kts 307°
2026-04-28 21:33 -33.20240 -58.34919 31318 ft 484 kts 307°
2026-04-28 21:33 -33.18041 -58.37954 31519 ft 483 kts 307°
2026-04-28 21:34 -33.15866 -58.40953 31729 ft 482 kts 307°
2026-04-28 21:34 -33.13685 -58.43959 31944 ft 480 kts 307°
2026-04-28 21:34 -33.11486 -58.46986 32170 ft 479 kts 307°
2026-04-28 21:34 -33.09308 -58.49981 32388 ft 477 kts 307°
2026-04-28 21:35 -33.07129 -58.52979 32578 ft 477 kts 307°
2026-04-28 21:35 -33.05691 -58.54956 32691 ft 476 kts 307°
2026-04-28 21:35 -33.03512 -58.57948 32884 ft 475 kts 307°
2026-04-28 21:35 -33.01342 -58.60924 33075 ft 474 kts 306°
2026-04-28 21:36 -32.98624 -58.64977 33281 ft 472 kts 303°
2026-04-28 21:36 -32.97289 -58.67085 33390 ft 471 kts 302°
2026-04-28 21:36 -32.95338 -58.70225 33558 ft 470 kts 302°
2026-04-28 21:36 -32.93433 -58.73313 33728 ft 470 kts 302°
2026-04-28 21:37 -32.91488 -58.76455 33892 ft 469 kts 302°
2026-04-28 21:37 -32.89545 -58.79579 34025 ft 469 kts 302°
2026-04-28 21:37 -32.87599 -58.82688 34160 ft 469 kts 302°
2026-04-28 21:37 -32.85649 -58.85791 34319 ft 467 kts 303°
2026-04-28 21:38 -32.83702 -58.88879 34466 ft 466 kts 303°
2026-04-28 21:38 -32.81753 -58.91964 34609 ft 465 kts 303°
2026-04-28 21:38 -32.79807 -58.95040 34735 ft 464 kts 303°
2026-04-28 21:38 -32.77863 -58.98112 34862 ft 464 kts 303°
2026-04-28 21:39 -32.75922 -59.01177 34980 ft 463 kts 303°
2026-04-28 21:39 -32.73985 -59.04234 35083 ft 463 kts 303°
2026-04-28 21:39 -32.72076 -59.07245 35199 ft 462 kts 303°
2026-04-28 21:39 -32.70148 -59.10284 35329 ft 461 kts 303°
2026-04-28 21:40 -32.68216 -59.13325 35437 ft 460 kts 303°
2026-04-28 21:40 -32.66289 -59.16357 35524 ft 460 kts 303°
2026-04-28 21:40 -32.64359 -59.19391 35629 ft 460 kts 303°
2026-04-28 21:40 -32.62429 -59.22423 35752 ft 458 kts 303°
2026-04-28 21:41 -32.60505 -59.25444 35857 ft 458 kts 303°
2026-04-28 21:41 -32.58582 -59.28458 35969 ft 457 kts 303°
2026-04-28 21:41 -32.54748 -59.34465 36007 ft 458 kts 303°
2026-04-28 21:42 -32.50923 -59.40448 36017 ft 459 kts 303°
2026-04-28 21:42 -32.47055 -59.46489 36021 ft 460 kts 303°
2026-04-28 21:43 -32.43177 -59.52534 36017 ft 461 kts 303°
2026-04-28 21:43 -32.39295 -59.58576 36016 ft 461 kts 303°
2026-04-28 21:44 -32.35403 -59.64625 36013 ft 462 kts 303°
2026-04-28 21:44 -32.31534 -59.70627 36019 ft 462 kts 303°
2026-04-28 21:45 -32.27638 -59.76661 36014 ft 461 kts 304°
2026-04-28 21:45 -32.23743 -59.82685 36015 ft 461 kts 304°
2026-04-28 21:46 -32.19843 -59.88708 36012 ft 461 kts 304°
2026-04-28 21:46 -32.15952 -59.94706 36017 ft 460 kts 304°
2026-04-28 21:47 -32.12059 -60.00699 36011 ft 459 kts 304°
2026-04-28 21:47 -32.08170 -60.06676 36013 ft 459 kts 304°
2026-04-28 21:48 -32.04309 -60.12600 36020 ft 458 kts 304°
2026-04-28 21:48 -32.00427 -60.18550 36011 ft 458 kts 304°
2026-04-28 21:49 -31.96537 -60.24501 36012 ft 457 kts 304°
2026-04-28 21:49 -31.92652 -60.30437 36018 ft 458 kts 304°
2026-04-28 21:50 -31.88777 -60.36350 36018 ft 458 kts 304°
2026-04-28 21:50 -31.84873 -60.42299 36024 ft 459 kts 304°
2026-04-28 21:51 -31.80792 -60.48116 36014 ft 464 kts 313°
2026-04-28 21:51 -31.75583 -60.52678 36029 ft 470 kts 324°
2026-04-28 21:52 -31.70058 -60.56766 36020 ft 472 kts 325°
2026-04-28 21:52 -31.64505 -60.60899 36018 ft 473 kts 324°
2026-04-28 21:53 -31.58965 -60.65084 36019 ft 473 kts 324°
2026-04-28 21:53 -31.53432 -60.69283 36018 ft 474 kts 324°
2026-04-28 21:54 -31.47890 -60.73483 36020 ft 474 kts 324°
2026-04-28 21:54 -31.42380 -60.77651 36020 ft 474 kts 324°
2026-04-28 21:55 -31.36839 -60.81835 36021 ft 473 kts 324°
2026-04-28 21:55 -31.31300 -60.86012 36024 ft 472 kts 324°
2026-04-28 21:56 -31.25779 -60.90169 36018 ft 471 kts 324°
2026-04-28 21:56 -31.20273 -60.94310 36024 ft 469 kts 324°
2026-04-28 21:57 -31.14825 -60.98402 36023 ft 468 kts 324°
2026-04-28 21:57 -31.09360 -61.02504 36022 ft 466 kts 324°
2026-04-28 21:58 -31.03899 -61.06595 36027 ft 465 kts 324°
2026-04-28 21:58 -30.98447 -61.10663 36025 ft 465 kts 324°
2026-04-28 21:59 -30.92999 -61.14718 36034 ft 464 kts 324°
2026-04-28 22:00 -30.84830 -61.20798 36036 ft 464 kts 324°
2026-04-28 22:00 -30.79418 -61.24821 36037 ft 464 kts 324°
2026-04-28 22:01 -30.73962 -61.28872 36034 ft 465 kts 324°
2026-04-28 22:01 -30.68492 -61.32927 36043 ft 466 kts 324°
2026-04-28 22:02 -30.63061 -61.36948 36042 ft 466 kts 324°
2026-04-28 22:02 -30.57585 -61.40997 36038 ft 466 kts 324°
2026-04-28 22:03 -30.52112 -61.45038 36038 ft 466 kts 324°
2026-04-28 22:03 -30.46655 -61.49060 36035 ft 461 kts 324°
2026-04-28 22:04 -30.41246 -61.53042 36044 ft 458 kts 324°
2026-04-28 22:04 -30.35923 -61.56957 36043 ft 455 kts 324°
2026-04-28 22:05 -30.30581 -61.60881 36049 ft 454 kts 324°
2026-04-28 22:05 -30.25220 -61.64815 36059 ft 456 kts 324°
2026-04-28 22:06 -30.19840 -61.68758 36055 ft 459 kts 324°
2026-04-28 22:06 -30.14466 -61.72690 36055 ft 461 kts 324°
2026-04-28 22:07 -30.09022 -61.76668 36054 ft 463 kts 324°
2026-04-28 22:07 -30.03572 -61.80646 36052 ft 464 kts 324°
2026-04-28 22:08 -29.98104 -61.84632 36048 ft 465 kts 324°
2026-04-28 22:08 -29.92643 -61.88610 36048 ft 464 kts 324°
2026-04-28 22:09 -29.87221 -61.92638 36037 ft 461 kts 320°
2026-04-28 22:09 -29.82509 -61.97550 36044 ft 455 kts 313°
2026-04-28 22:10 -29.77970 -62.02618 36047 ft 454 kts 313°
2026-04-28 22:10 -29.73451 -62.07623 36046 ft 452 kts 313°
2026-04-28 22:11 -29.68898 -62.12611 36044 ft 451 kts 313°
2026-04-28 22:11 -29.64350 -62.17570 36046 ft 450 kts 313°
2026-04-28 22:12 -29.59804 -62.22518 36046 ft 449 kts 313°
2026-04-28 22:12 -29.55291 -62.27427 36045 ft 449 kts 313°
2026-04-28 22:13 -29.50746 -62.32364 36045 ft 450 kts 313°
2026-04-28 22:13 -29.46195 -62.37302 36044 ft 450 kts 313°
2026-04-28 22:14 -29.41631 -62.42247 36040 ft 452 kts 313°
2026-04-28 22:14 -29.37044 -62.47211 36046 ft 453 kts 313°
2026-04-28 22:15 -29.32473 -62.52151 36042 ft 454 kts 313°
2026-04-28 22:15 -29.27867 -62.57123 36044 ft 455 kts 313°
2026-04-28 22:16 -29.23240 -62.62112 36042 ft 456 kts 313°
2026-04-28 22:16 -29.18612 -62.67094 36039 ft 457 kts 313°
2026-04-28 22:17 -29.13977 -62.72079 36038 ft 457 kts 313°
2026-04-28 22:17 -29.09341 -62.77059 36040 ft 457 kts 313°
2026-04-28 22:18 -29.04736 -62.82002 36039 ft 456 kts 313°
2026-04-28 22:18 -29.00292 -62.87133 36023 ft 450 kts 301°
2026-04-28 22:19 -28.97654 -62.93486 36036 ft 439 kts 281°
2026-04-28 22:19 -28.96700 -63.00326 36038 ft 436 kts 275°
2026-04-28 22:20 -28.95874 -63.07184 36038 ft 436 kts 275°
2026-04-28 22:20 -28.95021 -63.14012 36038 ft 437 kts 275°
2026-04-28 22:21 -28.94132 -63.20891 36039 ft 438 kts 275°
2026-04-28 22:21 -28.93381 -63.26621 36045 ft 440 kts 275°
2026-04-28 22:22 -28.92469 -63.33540 36042 ft 442 kts 275°
2026-04-28 22:22 -28.91546 -63.40508 36045 ft 444 kts 275°
2026-04-28 22:23 -28.90622 -63.47465 36039 ft 446 kts 275°
2026-04-28 22:23 -28.89686 -63.54488 36041 ft 448 kts 275°
2026-04-28 22:24 -28.88749 -63.61489 36039 ft 450 kts 275°
2026-04-28 22:24 -28.87795 -63.68587 36039 ft 452 kts 274°
2026-04-28 22:25 -28.86836 -63.75690 36039 ft 454 kts 274°
2026-04-28 22:25 -28.85870 -63.82816 36038 ft 455 kts 274°
2026-04-28 22:26 -28.84897 -63.89966 36031 ft 457 kts 274°
2026-04-28 22:26 -28.83923 -63.97091 36030 ft 457 kts 274°
2026-04-28 22:27 -28.82941 -64.04254 36026 ft 457 kts 274°
2026-04-28 22:27 -28.81953 -64.11421 36026 ft 457 kts 274°
2026-04-28 22:28 -28.80960 -64.18600 36019 ft 457 kts 274°
2026-04-28 22:28 -28.79972 -64.25717 36022 ft 457 kts 273°
2026-04-28 22:29 -28.78975 -64.32870 36019 ft 457 kts 273°
2026-04-28 22:29 -28.77974 -64.40020 36031 ft 457 kts 273°
2026-04-28 22:30 -28.76968 -64.47179 36025 ft 457 kts 273°
2026-04-28 22:30 -28.75960 -64.54330 36021 ft 458 kts 273°
2026-04-28 22:31 -28.74945 -64.61501 36007 ft 458 kts 272°
2026-04-28 22:31 -28.73924 -64.68682 36007 ft 459 kts 272°
2026-04-28 22:32 -28.72898 -64.75873 36011 ft 461 kts 272°
2026-04-28 22:32 -28.71864 -64.83095 36008 ft 462 kts 272°
2026-04-28 22:33 -28.70821 -64.90348 36000 ft 464 kts 272°
2026-04-28 22:33 -28.69780 -64.97559 36005 ft 465 kts 272°
2026-04-28 22:34 -28.68726 -65.04828 36000 ft 466 kts 272°
2026-04-28 22:34 -28.67666 -65.12112 35997 ft 466 kts 272°
2026-04-28 22:35 -28.66601 -65.19399 35990 ft 467 kts 272°
2026-04-28 22:35 -28.65533 -65.26685 35993 ft 467 kts 272°
2026-04-28 22:36 -28.64459 -65.33978 35996 ft 467 kts 272°
2026-04-28 22:36 -28.63381 -65.41279 35987 ft 467 kts 272°
2026-04-28 22:37 -28.62300 -65.48571 36031 ft 467 kts 272°
2026-04-28 22:37 -28.61223 -65.55814 35984 ft 466 kts 272°
2026-04-28 22:38 -28.60138 -65.63079 35966 ft 465 kts 272°
2026-04-28 22:38 -28.59053 -65.70334 35952 ft 464 kts 272°
2026-04-28 22:39 -28.57847 -65.77551 35959 ft 466 kts 276°
2026-04-28 22:39 -28.56229 -65.84686 35960 ft 465 kts 277°
2026-04-28 22:40 -28.54539 -65.91780 35971 ft 464 kts 277°
2026-04-28 22:40 -28.52884 -65.98871 35966 ft 463 kts 277°
2026-04-28 22:41 -28.51254 -66.05966 35962 ft 463 kts 277°
2026-04-28 22:41 -28.49639 -66.13019 35956 ft 463 kts 277°
2026-04-28 22:42 -28.48009 -66.20106 35938 ft 463 kts 277°
2026-04-28 22:42 -28.46376 -66.27187 35947 ft 464 kts 277°
2026-04-28 22:43 -28.44733 -66.34305 35948 ft 467 kts 277°
2026-04-28 22:43 -28.43076 -66.41461 35942 ft 469 kts 277°
2026-04-28 22:44 -28.41411 -66.48626 35940 ft 471 kts 277°
2026-04-28 22:44 -28.39731 -66.55833 35932 ft 472 kts 277°
2026-04-28 22:45 -28.38045 -66.63044 35932 ft 472 kts 277°
2026-04-28 22:45 -28.36362 -66.70224 35926 ft 472 kts 277°
2026-04-28 22:46 -28.34673 -66.77417 35925 ft 470 kts 277°
2026-04-28 22:46 -28.32987 -66.84575 35933 ft 469 kts 277°
2026-04-28 22:47 -28.31302 -66.91713 35933 ft 467 kts 277°
2026-04-28 22:47 -28.29620 -66.98825 35935 ft 465 kts 277°
2026-04-28 22:48 -28.27941 -67.05905 35937 ft 464 kts 277°
2026-04-28 22:48 -28.26273 -67.12922 35944 ft 463 kts 278°
2026-04-28 22:49 -28.24594 -67.19969 35952 ft 463 kts 278°
2026-04-28 22:49 -28.22909 -67.27026 35961 ft 464 kts 278°
2026-04-28 22:50 -28.21217 -67.34095 35958 ft 464 kts 278°
2026-04-28 22:50 -28.19518 -67.41172 35953 ft 465 kts 278°
2026-04-28 22:51 -28.17811 -67.48270 35952 ft 466 kts 278°
2026-04-28 22:51 -28.16103 -67.55356 35951 ft 467 kts 278°
2026-04-28 22:52 -28.14401 -67.62401 35962 ft 467 kts 278°
2026-04-28 22:52 -28.12678 -67.69505 35964 ft 467 kts 278°
2026-04-28 22:53 -28.10956 -67.76599 35996 ft 468 kts 278°
2026-04-28 22:53 -28.09227 -67.83735 35986 ft 468 kts 278°
2026-04-28 22:54 -28.07509 -67.90802 35969 ft 468 kts 279°
2026-04-28 22:54 -28.05767 -67.97930 35985 ft 466 kts 279°
2026-04-28 22:55 -28.04050 -68.04947 36000 ft 464 kts 279°
2026-04-28 22:55 -28.02327 -68.11981 36009 ft 464 kts 279°
2026-04-28 22:56 -28.00599 -68.19022 36013 ft 463 kts 279°
2026-04-28 22:56 -27.98874 -68.26024 36028 ft 459 kts 280°
2026-04-28 22:57 -27.97156 -68.32993 36058 ft 461 kts 280°
2026-04-28 22:57 -27.95422 -68.40011 36069 ft 465 kts 280°
2026-04-28 22:58 -27.93671 -68.47074 36090 ft 468 kts 281°
2026-04-28 22:58 -27.91918 -68.54131 36123 ft 471 kts 281°
2026-04-28 22:59 -27.90137 -68.61282 36151 ft 473 kts 281°
2026-04-28 22:59 -27.88347 -68.68442 36158 ft 470 kts 281°
2026-04-28 23:00 -27.86583 -68.75481 36183 ft 462 kts 281°
2026-04-28 23:00 -27.84905 -68.82173 36233 ft 459 kts 281°
2026-04-28 23:01 -27.83177 -68.89051 36241 ft 456 kts 281°
2026-04-28 23:01 -27.81440 -68.95958 36259 ft 458 kts 281°
2026-04-28 23:02 -27.79723 -69.02776 36259 ft 462 kts 281°
2026-04-28 23:02 -27.77924 -69.09762 36257 ft 467 kts 284°
2026-04-28 23:03 -27.75542 -69.16449 36238 ft 473 kts 289°
2026-04-28 23:03 -27.72946 -69.23096 36236 ft 476 kts 289°
2026-04-28 23:04 -27.70373 -69.29788 36233 ft 478 kts 289°
2026-04-28 23:04 -27.66512 -69.40012 36200 ft 467 kts 289°
2026-04-28 23:05 -27.63988 -69.46719 36180 ft 465 kts 289°
2026-04-28 23:05 -27.61464 -69.53410 36166 ft 463 kts 289°
2026-04-28 23:06 -27.58944 -69.60073 36147 ft 462 kts 289°
2026-04-28 23:06 -27.56416 -69.66754 36128 ft 465 kts 289°
2026-04-28 23:07 -27.53866 -69.73471 36112 ft 468 kts 289°
2026-04-28 23:07 -27.51165 -69.78830 36102 ft 477 kts 304°
2026-04-28 23:08 -27.46607 -69.84339 36093 ft 483 kts 313°
2026-04-28 23:08 -27.41793 -69.89651 36070 ft 484 kts 312°
2026-04-28 23:09 -27.37023 -69.95019 36052 ft 485 kts 312°
2026-04-28 23:09 -27.32296 -70.00416 36036 ft 483 kts 311°
2026-04-28 23:10 -27.27579 -70.05794 36046 ft 482 kts 312°
2026-04-28 23:10 -27.22904 -70.11101 36037 ft 480 kts 312°
2026-04-28 23:11 -27.18469 -70.16126 36017 ft 477 kts 312°
2026-04-28 23:11 -27.13801 -70.21417 36026 ft 475 kts 312°
2026-04-28 23:12 -27.09157 -70.26677 36035 ft 473 kts 312°
2026-04-28 23:12 -27.04558 -70.31882 36030 ft 471 kts 312°
2026-04-28 23:13 -26.99941 -70.37101 36033 ft 471 kts 312°
2026-04-28 23:13 -26.95479 -70.42132 36039 ft 471 kts 312°
2026-04-28 23:14 -26.90842 -70.47341 36041 ft 473 kts 313°
2026-04-28 23:14 -26.86182 -70.52577 36041 ft 475 kts 313°
2026-04-28 23:15 -26.81505 -70.57830 36044 ft 477 kts 313°
2026-04-28 23:15 -26.76844 -70.63061 36048 ft 478 kts 313°
2026-04-28 23:16 -26.72134 -70.68339 36046 ft 479 kts 313°
2026-04-28 23:16 -26.66699 -70.72620 36062 ft 484 kts 341°
2026-04-28 23:17 -26.63413 -70.73419 36038 ft 485 kts 357°
2026-04-28 23:17 -26.60050 -70.73230 36064 ft 483 kts
2026-04-28 23:17 -26.53405 -70.71955 36049 ft 484 kts 11°
2026-04-28 23:18 -26.46788 -70.70751 36042 ft 485 kts
2026-04-28 23:18 -26.40081 -70.69882 36055 ft 485 kts
2026-04-28 23:19 -26.33348 -70.69325 36045 ft 485 kts
2026-04-28 23:19 -26.26602 -70.68783 36049 ft 485 kts
2026-04-28 23:20 -26.19870 -70.68207 36044 ft 485 kts
2026-04-28 23:20 -26.13147 -70.67614 36046 ft 484 kts
2026-04-28 23:21 -26.06435 -70.67020 36041 ft 484 kts
2026-04-28 23:21 -25.99721 -70.66428 36042 ft 483 kts
2026-04-28 23:22 -25.93046 -70.65842 36039 ft 482 kts
2026-04-28 23:22 -25.86341 -70.65254 36034 ft 482 kts
2026-04-28 23:23 -25.79663 -70.64669 36046 ft 481 kts
2026-04-28 23:23 -25.73015 -70.64087 36041 ft 481 kts
2026-04-28 23:24 -25.66347 -70.63504 36038 ft 480 kts
2026-04-28 23:24 -25.59689 -70.62923 36041 ft 479 kts
2026-04-28 23:25 -25.53043 -70.62344 36031 ft 479 kts
2026-04-28 23:25 -25.46386 -70.61766 35898 ft 480 kts
2026-04-28 23:26 -25.43087 -70.61478 35610 ft 482 kts
2026-04-28 23:26 -25.39746 -70.61188 35310 ft 481 kts
2026-04-28 23:26 -25.36417 -70.60901 35031 ft 479 kts
2026-04-28 23:26 -25.33091 -70.60614 34750 ft 478 kts
2026-04-28 23:27 -25.29771 -70.60330 34456 ft 479 kts
2026-04-28 23:27 -25.26432 -70.60044 33985 ft 483 kts
2026-04-28 23:27 -25.23070 -70.59757 33506 ft 486 kts
2026-04-28 23:27 -25.19688 -70.59468 33019 ft 489 kts
2026-04-28 23:28 -25.16281 -70.59177 32540 ft 491 kts
2026-04-28 23:28 -25.12870 -70.58886 32078 ft 492 kts
2026-04-28 23:28 -25.09446 -70.58594 31607 ft 492 kts
2026-04-28 23:28 -25.06022 -70.58302 31150 ft 492 kts
2026-04-28 23:29 -25.02659 -70.58015 30706 ft 491 kts
2026-04-28 23:29 -24.99258 -70.57725 30262 ft 489 kts
2026-04-28 23:29 -24.95873 -70.57437 29776 ft 488 kts
2026-04-28 23:29 -24.92488 -70.57149 29262 ft 486 kts
2026-04-28 23:30 -24.89114 -70.56863 28754 ft 485 kts
2026-04-28 23:30 -24.85733 -70.56577 28269 ft 490 kts
2026-04-28 23:30 -24.82316 -70.56287 27796 ft 495 kts
2026-04-28 23:30 -24.78865 -70.56022 27304 ft 494 kts
2026-04-28 23:31 -24.75451 -70.55884 26769 ft 488 kts 360°
2026-04-28 23:31 -24.72052 -70.55822 25998 ft 489 kts 359°
2026-04-28 23:31 -24.68655 -70.55792 25272 ft 489 kts 359°
2026-04-28 23:31 -24.65248 -70.55766 24556 ft 489 kts 359°
2026-04-28 23:32 -24.61846 -70.55731 23864 ft 489 kts 359°
2026-04-28 23:32 -24.58443 -70.55684 23101 ft 488 kts 360°
2026-04-28 23:32 -24.55097 -70.55630 22322 ft 487 kts 360°
2026-04-28 23:32 -24.51706 -70.55569 21541 ft 486 kts
2026-04-28 23:33 -24.48326 -70.55506 20773 ft 484 kts
2026-04-28 23:33 -24.44971 -70.55442 20265 ft 477 kts
2026-04-28 23:33 -24.41709 -70.55378 20185 ft 460 kts
2026-04-28 23:33 -24.38553 -70.55316 20088 ft 445 kts
2026-04-28 23:34 -24.35508 -70.55257 20004 ft 431 kts
2026-04-28 23:34 -24.32557 -70.55200 19925 ft 417 kts
2026-04-28 23:34 -24.29735 -70.55145 19849 ft 405 kts
2026-04-28 23:34 -24.26951 -70.55092 19594 ft 398 kts
2026-04-28 23:35 -24.24156 -70.55040 18984 ft 403 kts
2026-04-28 23:35 -24.21334 -70.54988 18412 ft 407 kts
2026-04-28 23:35 -24.18653 -70.54938 17809 ft 410 kts
2026-04-28 23:35 -24.15791 -70.54886 17159 ft 412 kts
2026-04-28 23:36 -24.12914 -70.54833 16523 ft 414 kts
2026-04-28 23:36 -24.10022 -70.54780 15897 ft 415 kts
2026-04-28 23:36 -24.07169 -70.54727 15289 ft 416 kts
2026-04-28 23:36 -24.04273 -70.54674 14682 ft 416 kts
2026-04-28 23:37 -24.01373 -70.54621 14089 ft 416 kts
2026-04-28 23:37 -23.98481 -70.54568 13470 ft 416 kts
2026-04-28 23:37 -23.95583 -70.54515 12820 ft 415 kts
2026-04-28 23:37 -23.92691 -70.54462 12184 ft 414 kts
2026-04-28 23:38 -23.89832 -70.54410 11543 ft 406 kts
2026-04-28 23:38 -23.87042 -70.54358 10923 ft 395 kts
2026-04-28 23:38 -23.84330 -70.54308 10370 ft 384 kts
2026-04-28 23:38 -23.81724 -70.54260 10161 ft 364 kts
2026-04-28 23:39 -23.79538 -70.54218 10046 ft 347 kts
2026-04-28 23:39 -23.77188 -70.54174 10006 ft 330 kts
2026-04-28 23:39 -23.74936 -70.54131 9992 ft 317 kts
2026-04-28 23:39 -23.72771 -70.54090 9959 ft 306 kts
2026-04-28 23:40 -23.70660 -70.54049 9818 ft 299 kts
2026-04-28 23:40 -23.68598 -70.54011 9663 ft 293 kts
2026-04-28 23:40 -23.66582 -70.53973 9516 ft 287 kts
2026-04-28 23:40 -23.64608 -70.53936 9368 ft 280 kts
2026-04-28 23:41 -23.62678 -70.53900 9222 ft 275 kts
2026-04-28 23:41 -23.60803 -70.53866 9078 ft 270 kts
2026-04-28 23:41 -23.58932 -70.53832 8936 ft 267 kts
2026-04-28 23:41 -23.57075 -70.53798 8813 ft 266 kts
2026-04-28 23:42 -23.55221 -70.53764 8663 ft 266 kts
2026-04-28 23:42 -23.53375 -70.53729 8549 ft 264 kts
2026-04-28 23:42 -23.51521 -70.53694 8193 ft 268 kts
2026-04-28 23:42 -23.49667 -70.53729 7840 ft 271 kts 357°
2026-04-28 23:43 -23.47783 -70.53864 7481 ft 270 kts 356°
2026-04-28 23:43 -23.45903 -70.54012 7121 ft 269 kts 356°
2026-04-28 23:43 -23.44042 -70.54153 6769 ft 267 kts 356°
2026-04-28 23:43 -23.42194 -70.54285 6422 ft 265 kts 356°
2026-04-28 23:44 -23.40356 -70.54413 6050 ft 264 kts 356°
2026-04-28 23:44 -23.38531 -70.54537 5686 ft 263 kts 356°
2026-04-28 23:44 -23.36726 -70.54607 5349 ft 260 kts
2026-04-28 23:44 -23.34945 -70.54401 4973 ft 258 kts
2026-04-28 23:45 -23.33179 -70.54138 4627 ft 254 kts
2026-04-28 23:45 -23.31436 -70.53893 4276 ft 250 kts
2026-04-28 23:45 -23.29740 -70.53667 4033 ft 239 kts
2026-04-28 23:45 -23.28155 -70.53461 3975 ft 219 kts
2026-04-28 23:46 -23.26707 -70.53275 3963 ft 200 kts
2026-04-28 23:46 -23.25415 -70.52989 3950 ft 182 kts 31°
2026-04-28 23:46 -23.24526 -70.52013 4035 ft 190 kts 65°
2026-04-28 23:46 -23.24277 -70.50644 4003 ft 183 kts 95°
2026-04-28 23:47 -23.24392 -70.49289 4006 ft 177 kts 99°
2026-04-28 23:47 -23.24531 -70.48007 3978 ft 167 kts 100°
2026-04-28 23:47 -23.24666 -70.46774 3975 ft 162 kts 100°
2026-04-28 23:47 -23.24798 -70.45554 4039 ft 161 kts 101°
2026-04-28 23:48 -23.24931 -70.44321 4001 ft 165 kts 100°
2026-04-28 23:48 -23.25157 -70.43119 3972 ft 160 kts 121°
2026-04-28 23:48 -23.25988 -70.42383 3855 ft 156 kts 168°
2026-04-28 23:48 -23.27046 -70.42431 3719 ft 155 kts 188°
2026-04-28 23:49 -23.28110 -70.42553 3525 ft 150 kts 186°
2026-04-28 23:49 -23.29124 -70.42666 3342 ft 143 kts 186°
2026-04-28 23:49 -23.30103 -70.42780 3148 ft 141 kts 187°
2026-04-28 23:49 -23.31086 -70.42896 2975 ft 143 kts 186°
2026-04-28 23:50 -23.32078 -70.43015 2784 ft 143 kts 186°
2026-04-28 23:50 -23.33064 -70.43134 2602 ft 142 kts 186°
2026-04-28 23:50 -23.34066 -70.43250 2559 ft 144 kts 186°
2026-04-28 23:50 -23.35065 -70.43362 2541 ft 144 kts 183°
2026-04-28 23:51 -23.36051 -70.43399 2411 ft 146 kts 185°
2026-04-28 23:51 -23.37073 -70.43619 2155 ft 148 kts 193°
2026-04-28 23:51 -23.38072 -70.43794 1906 ft 146 kts 181°
2026-04-28 23:51 -23.39061 -70.43816 1739 ft 139 kts 184°
2026-04-28 23:52 -23.39998 -70.43964 1476 ft 137 kts 187°
2026-04-28 23:52 -23.40932 -70.44082 1207 ft 132 kts 187°
2026-04-28 23:52 -23.41818 -70.44190 930 ft 123 kts 187°
2026-04-28 23:52 -23.42644 -70.44287 785 ft 119 kts 189°
2026-04-28 23:53 -23.43519 -70.44403 545 ft 129 kts 187°
2026-04-28 23:53 -23.44397 -70.44517 460 ft 114 kts 184°
2026-04-28 23:53 -23.44816 -70.44558 460 ft 42 kts 186°
2026-04-28 23:53 -23.45083 -70.44591 461 ft 29 kts 186°
2026-04-28 23:54 -23.45175 -70.44601 462 ft 15 kts 176°
2026-04-28 23:54 -23.45216 -70.44559 460 ft 4 kts 96°
2026-04-28 23:54 -23.45216 -70.44534 462 ft 0 kts 91°
2026-04-28 23:57 -23.45216 -70.44525 462 ft 4 kts 92°
2026-04-28 23:58 -23.45220 -70.44474 461 ft 8 kts 94°
2026-04-28 23:58 -23.45190 -70.44423 461 ft 9 kts 23°
2026-04-28 23:58 -23.45129 -70.44409 461 ft 9 kts 13°
2026-04-28 23:58 -23.45066 -70.44395 461 ft 10 kts
2026-04-28 23:59 -23.45000 -70.44378 461 ft 10 kts 33°
2026-04-28 23:59 -23.44986 -70.44320 461 ft 0 kts 93°
2026-04-28 23:59 -23.44986 -70.44318 461 ft 1 kts 93°
2026-04-28 23:59 -23.44981 -70.44293 459 ft 7 kts 62°
2026-04-29 00:00 -23.44911 -70.44267 460 ft 15 kts
2026-04-29 00:00 -23.44812 -70.44252 461 ft 0 kts 13°
2026-04-29 00:00 -23.44809 -70.44251 461 ft 1 kts 13°
2026-04-29 00:01 -23.44804 -70.44250 461 ft 1 kts 13°
2026-04-29 00:01 -23.44798 -70.44246 461 ft 2 kts 27°
2026-04-29 00:01 -23.44789 -70.44221 461 ft 4 kts 93°
2026-04-29 00:01 -23.44786 -70.44187 461 ft 5 kts 89°
2026-04-29 00:02 -23.44789 -70.44167 461 ft 0 kts 99°
2026-04-29 00:02 -23.44789 -70.44165 461 ft 0 kts 99°